FW2998 Weather Reports


time (UTC)temp
F
wind
direction
speed
knots
gust
knots
rain 1hr
in
rain 24hr
in
rain mn
in
humidity
%
barometer
mb
20260508164022 73 0 0.0 1.7 0.00 0.12 0.05 48 1018.1
20260508163518 73 0 0.0 1.7 0.00 0.12 0.05 50 1018.0
20260508163053 72 0 0.0 2.6 0.00 0.12 0.05 48 1018.1
20260508162523 72 0 0.0 2.6 0.00 0.12 0.05 50 1018.2
20260508162021 72 0 0.0 2.6 0.00 0.12 0.05 51 1018.4
20260508161550 71 0 0.0 2.6 0.00 0.12 0.05 50 1018.4
20260508161019 71 191 0.0 1.7 0.00 0.12 0.05 53 1018.5
20260508160525 70 0 0.0 1.7 0.00 0.12 0.05 52 1018.5
20260508160036 69 0 0.0 1.7 0.00 0.12 0.05 52 1018.6
20260508155521 69 0 0.0 2.6 0.00 0.12 0.05 52 1018.7
20260508155019 69 351 0.0 2.6 0.00 0.12 0.05 56 1018.7
20260508154535 68 87 0.0 2.6 0.00 0.12 0.05 51 1018.8
20260508154024 68 0 0.0 2.6 0.00 0.12 0.05 54 1018.8
20260508153519 68 0 0.0 2.6 0.00 0.12 0.05 52 1018.8
20260508153052 68 0 0.0 2.6 0.00 0.12 0.05 54 1018.8
20260508152521 68 0 0.0 1.7 0.00 0.12 0.05 54 1018.7
20260508152020 68 0 0.0 2.6 0.00 0.12 0.05 54 1018.7
20260508151539 68 101 0.0 2.6 0.00 0.12 0.05 53 1018.6
20260508151023 68 0 0.0 2.6 0.00 0.12 0.05 54 1018.7
20260508150521 68 128 0.0 3.5 0.00 0.12 0.05 53 1018.7
20260508150032 67 0 0.0 3.5 0.00 0.12 0.05 55 1018.7
20260508145518 67 103 0.0 3.5 0.00 0.13 0.05 50 1018.8
20260508145021 67 0 0.0 1.7 0.00 0.13 0.05 52 1018.8
20260508144537 68 0 0.0 1.7 0.01 0.13 0.05 51 1018.8
20260508144021 68 105 0.0 2.6 0.01 0.13 0.05 54 1018.7
20260508143520 68 97 0.9 3.5 0.01 0.13 0.05 50 1018.7
20260508143056 68 0 0.0 3.5 0.01 0.13 0.05 52 1018.7
20260508142521 69 0 0.0 5.2 0.01 0.13 0.05 52 1018.6
20260508142023 69 84 0.9 5.2 0.01 0.13 0.05 50 1018.6
20260508141539 70 331 0.0 4.3 0.01 0.13 0.05 52 1018.5
20260508141021 70 84 0.0 4.3 0.01 0.13 0.05 51 1018.5
20260508140521 70 122 0.0 6.1 0.01 0.13 0.05 53 1018.5
20260508140034 69 0 0.0 6.1 0.01 0.13 0.05 55 1018.7
20260508135522 69 0 0.9 6.1 0.01 0.15 0.05 53 1018.6
20260508135022 69 90 0.0 2.6 0.00 0.14 0.04 59 1018.6
20260508134538 68 0 0.0 3.5 0.00 0.14 0.04 58 1018.5
20260508134020 67 0 0.9 5.2 0.00 0.14 0.04 59 1018.5
20260508133520 67 0 0.0 5.2 0.00 0.14 0.04 61 1018.6
20260508133037 67 0 0.0 5.2 0.00 0.14 0.04 60 1018.5
20260508132520 66 0 0.0 3.5 0.00 0.14 0.04 64 1018.4
20260508132020 65 117 0.0 3.5 0.00 0.14 0.04 66 1018.4
20260508131537 64 0 0.0 1.7 0.00 0.14 0.04 69 1018.3
20260508131021 63 0 0.0 2.6 0.00 0.14 0.04 75 1018.2
20260508130520 62 0 0.0 2.6 0.00 0.14 0.04 74 1018.1
20260508130035 61 0 0.0 4.3 0.01 0.14 0.04 78 1018.2
20260508125521 60 0 0.0 4.3 0.01 0.15 0.04 81 1018.0
20260508125022 59 0 0.0 3.5 0.01 0.15 0.04 84 1017.9
20260508124539 58 0 0.0 3.5 0.01 0.15 0.04 89 1017.9
20260508124020 57 360 0.0 3.5 0.01 0.15 0.04 92 1017.8
20260508123521 57 0 0.0 5.2 0.01 0.15 0.04 92 1017.9
20260508123042 56 0 0.0 5.2 0.01 0.15 0.04 93 1017.8
20260508122520 56 128 0.0 2.6 0.01 0.15 0.04 94 1017.8
20260508122020 56 0 0.0 1.7 0.01 0.15 0.04 94 1017.8
20260508121538 56 0 0.0 1.7 0.01 0.15 0.04 93 1017.8
20260508121019 56 0 0.0 1.7 0.01 0.15 0.04 93 1017.6
20260508120521 56 0 0.0 1.7 0.01 0.15 0.04 93 1017.6
20260508120036 55 0 0.0 0.9 0.00 0.14 0.03 93 1017.6
20260508115523 55 0 0.0 0.0 0.00 0.16 0.03 93 1017.5
20260508115022 55 0 0.0 0.0 0.00 0.16 0.03 93 1017.5
20260508114536 55 0 0.0 0.0 0.00 0.16 0.03 92 1017.4
20260508114020 54 0 0.0 0.0 0.00 0.16 0.03 92 1017.3
20260508113523 54 0 0.0 0.0 0.00 0.16 0.03 92 1017.1
20260508113040 54 0 0.0 0.0 0.00 0.16 0.03 91 1016.9
20260508112526 54 0 0.0 0.0 0.00 0.16 0.03 91 1016.7
20260508112022 54 0 0.0 0.0 0.00 0.16 0.03 91 1016.8
20260508111541 54 0 0.0 0.0 0.00 0.16 0.03 90 1016.8
20260508111020 54 0 0.0 0.0 0.00 0.16 0.03 90 1016.7
20260508110519 54 0 0.0 0.0 0.00 0.16 0.03 90 1016.6
20260508110038 54 0 0.0 0.0 0.00 0.16 0.03 90 1016.6
20260508105519 54 0 0.0 0.0 0.00 0.16 0.03 90 1016.6
20260508105021 54 0 0.0 0.0 0.01 0.16 0.03 89 1016.4
20260508104537 54 0 0.0 0.0 0.01 0.16 0.03 89 1016.2
20260508104019 54 0 0.0 0.0 0.01 0.16 0.03 89 1016.1
20260508103519 54 0 0.0 0.0 0.01 0.16 0.03 89 1016.0
20260508103044 55 0 0.0 0.0 0.01 0.16 0.03 89 1015.9
20260508102519 55 0 0.0 0.0 0.01 0.16 0.03 89 1016.0
20260508102026 55 0 0.0 0.0 0.01 0.16 0.03 89 1015.9
20260508101536 55 0 0.0 0.0 0.01 0.16 0.03 89 1015.7
20260508101022 55 0 0.0 0.0 0.01 0.16 0.03 89 1015.7
20260508100520 55 0 0.0 0.0 0.01 0.16 0.03 89 1015.7
20260508100053 55 0 0.0 0.0 0.01 0.16 0.03 89 1015.6
20260508095525 55 0 0.0 0.0 0.01 0.17 0.03 88 1015.6
20260508095023 55 0 0.0 0.0 0.00 0.16 0.02 88 1015.5
20260508094536 55 0 0.0 0.0 0.00 0.16 0.02 88 1015.5
20260508094021 56 0 0.0 0.0 0.00 0.16 0.02 88 1015.5
20260508093522 56 0 0.0 0.0 0.00 0.16 0.02 88 1015.5
20260508093039 56 0 0.0 0.0 0.00 0.16 0.02 88 1015.4
20260508092520 56 0 0.0 0.0 0.00 0.16 0.02 88 1015.2
20260508092019 56 0 0.0 0.0 0.00 0.16 0.02 88 1015.2
20260508091544 56 0 0.0 0.0 0.00 0.16 0.02 88 1015.3
20260508091021 56 0 0.0 0.0 0.00 0.16 0.02 88 1015.3
20260508090519 57 0 0.0 0.0 0.01 0.16 0.02 88 1015.4
20260508090041 57 0 0.0 0.0 0.01 0.16 0.02 88 1015.3
20260508085520 57 0 0.0 0.0 0.01 0.17 0.02 88 1015.3
20260508085022 57 0 0.0 0.0 0.01 0.17 0.02 88 1015.2
20260508084535 57 0 0.0 0.0 0.01 0.17 0.02 88 1015.3
20260508084023 57 0 0.0 0.0 0.01 0.17 0.02 88 1015.3
20260508083523 57 0 0.0 0.0 0.01 0.17 0.02 88 1015.3
20260508083034 57 0 0.0 0.0 0.01 0.17 0.02 87 1015.3
20260508082521 57 0 0.0 0.0 0.01 0.17 0.02 87 1015.2
20260508082020 57 0 0.0 0.0 0.01 0.17 0.02 87 1015.1
20260508081553 57 0 0.0 0.0 0.01 0.17 0.02 87 1015.1
20260508081020 57 0 0.0 0.0 0.01 0.17 0.02 87 1015.0
20260508080519 57 0 0.0 0.0 0.00 0.16 0.01 87 1015.0
20260508080040 58 0 0.0 0.0 0.00 0.16 0.01 87 1014.9
20260508075521 58 0 0.0 0.0 0.00 0.16 0.01 87 1014.9
20260508075020 58 0 0.0 0.0 0.00 0.16 0.01 86 1014.8
20260508074537 58 0 0.0 0.0 0.00 0.16 0.01 86 1014.9
20260508074019 58 0 0.0 0.0 0.00 0.16 0.01 87 1014.9
20260508073521 58 0 0.0 0.0 0.00 0.16 0.01 86 1014.7
20260508073043 58 0 0.0 0.0 0.00 0.16 0.01 86 1014.7
20260508072519 58 0 0.0 0.0 0.00 0.16 0.01 86 1014.6
20260508072024 58 0 0.0 0.0 0.00 0.16 0.01 86 1014.7
20260508071539 58 0 0.0 0.0 0.00 0.16 0.01 85 1014.6
20260508071019 58 0 0.0 0.0 0.00 0.16 0.01 85 1014.5
20260508070523 58 0 0.0 0.0 0.00 0.16 0.01 85 1014.6
20260508070036 59 0 0.0 0.0 0.00 0.16 0.01 84 1014.5
20260508065522 59 0 0.0 0.0 0.00 0.17 0.01 84 1014.4
20260508065020 59 0 0.0 0.0 0.00 0.17 0.01 84 1014.3
20260508064540 59 0 0.0 0.0 0.00 0.17 0.01 84 1014.3
20260508064022 59 0 0.0 0.0 0.00 0.17 0.01 84 1014.5
20260508063519 59 0 0.0 0.0 0.00 0.17 0.01 84 1014.5
20260508063037 59 0 0.0 0.0 0.00 0.17 0.01 84 1014.6
20260508062519 60 0 0.0 0.0 0.00 0.17 0.01 84 1014.6
20260508062020 60 0 0.0 0.0 0.00 0.17 0.01 83 1014.6
20260508061536 60 0 0.0 0.0 0.00 0.17 0.01 84 1014.7
20260508061024 60 0 0.0 0.0 0.00 0.17 0.01 83 1014.8
20260508060520 60 0 0.0 0.0 0.00 0.17 0.01 83 1014.8
20260508060055 60 0 0.0 0.0 0.00 0.17 0.01 83 1014.8
20260508055522 60 0 0.0 0.0 0.00 0.18 0.01 83 1014.7
20260508055022 60 0 0.0 0.0 0.00 0.18 0.01 83 1014.7
20260508054609 61 0 0.0 0.0 0.00 0.18 0.01 83 1014.7
20260508054022 61 0 0.0 0.0 0.00 0.18 0.01 83 1014.8
20260508053521 61 0 0.0 0.0 0.00 0.18 0.01 82 1014.5
20260508053046 61 0 0.0 0.9 0.00 0.18 0.01 82 1015.0
20260508052520 61 0 0.0 0.9 0.00 0.18 0.01 81 1014.8
20260508052022 61 0 0.0 0.9 0.00 0.18 0.01 80 1014.6
20260508051541 61 0 0.0 0.0 0.00 0.18 0.01 80 1014.7
20260508051023 61 0 0.0 0.0 0.00 0.18 0.01 80 1014.7
20260508050521 62 0 0.0 0.0 0.01 0.18 0.01 79 1014.6
20260508050036 62 0 0.0 0.0 0.01 0.18 0.01 80 1014.6
20260508045521 62 0 0.0 0.0 0.01 0.19 0.01 79 1014.6
20260508045021 62 0 0.0 0.0 0.01 0.19 0.01 79 1014.5
20260508044535 62 0 0.0 3.5 0.01 0.19 0.01 79 1014.4
20260508044021 62 0 0.0 3.5 0.01 0.19 0.01 79 1014.3
20260508043520 62 0 0.0 5.2 0.01 0.19 0.01 78 1014.3
20260508043037 63 32 0.0 5.2 0.01 0.19 0.01 78 1014.2
20260508042522 63 0 0.0 5.2 0.01 0.19 0.01 78 1014.2
20260508042019 63 0 0.0 5.2 0.01 0.19 0.01 77 1014.1
20260508041537 63 0 0.0 5.2 0.01 0.19 0.01 77 1014.1
20260508041022 63 0 0.9 5.2 0.00 0.18 0.00 76 1014.0
20260508040519 64 28 0.0 3.5 0.00 0.18 0.00 76 1014.1
20260508040037 64 109 0.0 3.5 0.00 0.18 0.00 76 1014.1
20260508035522 64 0 0.0 7.0 0.00 0.23 0.18 75 1014.0
20260508035022 65 0 0.0 7.0 0.00 0.23 0.18 74 1014.0
20260508034546 65 49 0.0 4.3 0.00 0.23 0.18 74 1014.0
20260508034021 65 340 0.0 4.3 0.00 0.23 0.18 73 1014.0
20260508033520 66 0 0.9 4.3 0.00 0.23 0.18 73 1013.8
20260508033036 66 0 0.0 3.5 0.00 0.23 0.18 75 1013.8
20260508032522 67 98 0.0 4.3 0.00 0.23 0.18 77 1013.7
20260508032021 68 0 0.0 5.2 0.00 0.23 0.18 77 1013.7
20260508031536 68 109 0.9 8.7 0.00 0.23 0.18 77 1013.4
20260508031019 68 0 0.9 8.7 0.01 0.23 0.18 77 1013.5
20260508030519 69 0 0.9 8.7 0.01 0.23 0.18 77 1013.3
20260508030040 69 42 0.0 9.6 0.01 0.23 0.18 78 1013.3
20260508025519 70 101 0.0 9.6 0.01 0.26 0.18 78 1013.1
20260508025019 70 74 0.0 9.6 0.01 0.26 0.18 79 1013.2
20260508024542 70 0 0.0 3.5 0.01 0.26 0.18 78 1012.9
20260508024019 70 0 0.0 3.5 0.01 0.26 0.18 78 1012.7
20260508023521 71 0 0.0 0.0 0.01 0.26 0.18 78 1012.7
20260508023036 71 0 0.0 0.0 0.01 0.26 0.18 77 1012.4
20260508022524 71 0 0.0 0.0 0.01 0.26 0.18 77 1012.2
20260508022019 71 0 0.0 2.6 0.01 0.26 0.18 77 1012.2
20260508021532 71 0 0.0 3.5 0.00 0.25 0.17 76 1012.0
20260508021024 71 0 0.0 3.5 0.00 0.25 0.17 76 1011.9
20260508020520 71 29 0.0 3.5 0.00 0.25 0.17 76 1011.8
20260508020034 71 0 0.0 4.3 0.00 0.25 0.17 76 1011.9
20260508015519 71 0 0.9 4.3 0.00 0.25 0.17 76 1011.6
20260508015019 72 0 0.0 3.5 0.00 0.25 0.17 75 1011.4
20260508014540 72 0 0.0 3.5 0.00 0.25 0.17 75 1011.3
20260508014021 72 0 0.0 3.5 0.00 0.25 0.17 74 1011.1
20260508013519 72 0 0.0 3.5 0.00 0.25 0.17 74 1011.1
20260508013037 72 277 0.0 3.5 0.00 0.25 0.17 74 1011.0
20260508012522 73 0 0.0 2.6 0.00 0.25 0.17 73 1011.0
20260508012021 73 0 0.0 0.9 0.00 0.25 0.17 73 1010.9
20260508011537 73 0 0.0 1.7 0.00 0.25 0.17 72 1010.8
20260508011020 73 0 0.0 2.6 0.00 0.25 0.17 72 1010.8
20260508010520 73 0 0.0 6.1 0.00 0.25 0.17 72 1010.7
20260508010048 74 0 0.0 6.1 0.00 0.25 0.17 71 1010.7
20260508005519 74 0 0.0 6.1 0.01 0.25 0.17 71 1010.7
20260508005021 74 0 0.0 6.1 0.01 0.25 0.17 71 1010.6
20260508004534 74 0 0.0 5.2 0.01 0.25 0.17 70 1010.5
20260508004021 74 0 0.0 5.2 0.01 0.25 0.17 70 1010.4
20260508003520 75 0 0.0 6.1 0.01 0.25 0.17 70 1010.2
20260508003036 75 0 0.0 6.1 0.01 0.25 0.17 69 1010.2
20260508002520 75 0 0.0 7.0 0.01 0.25 0.17 69 1010.1
20260508002019 75 315 0.9 7.0 0.01 0.25 0.17 68 1009.9
20260508001536 75 0 0.9 6.1 0.01 0.25 0.17 68 1009.9
20260508001019 76 0 0.0 7.0 0.01 0.25 0.17 68 1009.7
20260508000524 76 0 0.0 7.8 0.01 0.25 0.17 68 1009.6
20260508000036 76 237 0.9 10.4 0.01 0.25 0.17 69 1009.6
20260507235523 76 287 0.0 10.4 0.00 0.24 0.16 69 1009.5
20260507235019 76 0 1.7 10.4 0.00 0.24 0.16 68 1009.4
20260507234532 77 163 1.7 7.8 0.00 0.24 0.16 69 1009.3
20260507234019 77 236 1.7 7.8 0.00 0.24 0.16 69 1009.3
20260507233520 77 254 0.9 13.0 0.00 0.24 0.16 69 1009.3
20260507233037 77 298 1.7 13.0 0.00 0.24 0.16 69 1009.3
20260507232518 77 302 2.6 8.7 0.00 0.24 0.16 69 1009.2
20260507232020 77 289 0.9 8.7 0.00 0.24 0.16 70 1009.0
20260507231543 78 0 0.0 11.3 0.01 0.24 0.16 70 1009.0
20260507231019 78 309 1.7 11.3 0.01 0.24 0.16 69 1008.9
20260507230519 78 0 0.0 9.6 0.01 0.24 0.16 70 1008.9
20260507230040 78 0 0.9 9.6 0.01 0.24 0.16 70 1009.0
20260507225520 78 331 0.9 6.1 0.01 0.24 0.16 70 1008.9
20260507225020 79 250 0.9 5.2 0.01 0.24 0.16 70 1009.0
20260507224536 79 0 0.0 7.8 0.01 0.24 0.16 69 1009.0
20260507224020 79 117 1.7 7.8 0.01 0.24 0.16 69 1009.0
20260507223519 79 326 0.9 6.1 0.01 0.24 0.16 68 1008.8
20260507223038 80 0 0.0 2.6 0.01 0.24 0.16 68 1008.8
20260507222519 80 0 0.0 7.8 0.01 0.24 0.16 68 1008.8
20260507222020 80 294 1.7 7.8 0.01 0.24 0.16 67 1008.8
20260507221537 80 0 0.0 10.4 0.00 0.23 0.15 67 1008.8
20260507221020 81 273 0.9 10.4 0.00 0.23 0.15 66 1008.8
20260507220519 81 277 0.9 7.8 0.00 0.23 0.15 65 1008.9
20260507220037 81 273 0.0 2.6 0.00 0.23 0.15 66 1008.8
20260507215521 81 0 0.0 5.2 0.00 0.23 0.15 66 1008.8
20260507215019 81 0 0.9 6.1 0.00 0.23 0.15 65 1008.7
20260507214536 81 132 0.0 7.0 0.00 0.23 0.15 66 1008.8
20260507214020 81 284 0.9 8.7 0.00 0.23 0.15 67 1008.8
20260507213520 81 5 0.0 8.7 0.00 0.23 0.15 68 1008.7
20260507213034 81 0 1.7 8.7 0.00 0.23 0.15 69 1008.7
20260507212520 80 0 0.0 7.0 0.00 0.23 0.15 70 1008.7
20260507212019 80 0 0.9 7.0 0.00 0.23 0.15 71 1008.7
20260507211539 79 265 0.0 6.1 0.01 0.23 0.15 73 1008.8
20260507211021 79 0 0.0 8.7 0.01 0.23 0.15 74 1009.0
20260507210519 78 0 0.9 8.7 0.01 0.23 0.15 73 1008.9
20260507210036 78 0 0.0 7.0 0.01 0.23 0.15 74 1009.1
20260507205519 78 313 0.9 7.0 0.01 0.23 0.15 74 1009.1
20260507205020 78 315 0.9 6.1 0.01 0.23 0.15 74 1009.3
20260507204539 78 154 0.9 6.1 0.01 0.23 0.15 74 1009.1
20260507204020 78 0 0.0 7.0 0.01 0.23 0.15 75 1009.3
20260507203519 78 302 1.7 8.7 0.01 0.23 0.15 76 1009.3
20260507203038 77 0 2.6 8.7 0.02 0.23 0.15 76 1009.3
20260507202519 77 0 0.9 7.8 0.02 0.23 0.15 78 1009.2
20260507202019 76 0 0.9 6.1 0.01 0.22 0.14 78 1009.3
20260507201543 76 288 1.7 7.0 0.01 0.22 0.14 78 1009.3
20260507201021 77 352 1.7 7.0 0.01 0.22 0.14 79 1009.2
20260507200520 77 0 0.9 8.7 0.01 0.22 0.14 78 1009.2
20260507200040 77 208 0.9 8.7 0.01 0.22 0.14 78 1009.2
20260507195520 78 171 1.7 7.8 0.01 0.22 0.14 78 1009.2
20260507195020 78 0 0.9 7.8 0.01 0.22 0.14 77 1009.1
20260507194537 78 232 0.9 9.6 0.01 0.22 0.14 77 1009.0
20260507194053 78 0 1.7 9.6 0.01 0.22 0.14 80 1009.0
20260507193519 77 299 0.9 6.1 0.01 0.22 0.14 81 1008.9
20260507193038 77 0 0.9 7.8 0.00 0.21 0.13 84 1008.9
20260507192518 76 311 1.7 7.8 0.00 0.21 0.13 84 1008.9
20260507192020 76 312 0.0 6.1 0.00 0.21 0.13 89 1008.9
20260507191536 75 316 0.9 8.7 0.00 0.21 0.13 90 1009.0
20260507191019 75 0 0.9 8.7 0.00 0.21 0.13 92 1008.9
20260507190521 74 0 0.9 7.0 0.00 0.21 0.13 94 1009.1
20260507190035 74 161 0.0 3.5 0.00 0.21 0.13 95 1009.0
20260507185519 73 0 0.0 1.7 0.00 0.21 0.13 96 1009.1
20260507185019 73 0 0.0 1.7 0.01 0.21 0.13 96 1009.1
20260507184532 73 0 0.0 7.8 0.01 0.21 0.13 97 1009.2
20260507184019 72 0 0.9 7.8 0.01 0.21 0.13 97 1009.1
20260507183524 72 0 0.0 3.5 0.01 0.21 0.13 98 1009.3
20260507183046 72 0 0.0 3.5 0.01 0.21 0.13 97 1009.4
20260507182520 72 286 0.0 3.5 0.01 0.21 0.13 97 1009.3
20260507182022 72 0 0.0 3.5 0.01 0.21 0.13 97 1009.3
20260507181541 72 0 0.0 0.9 0.01 0.21 0.13 98 1009.2
20260507181020 72 0 0.0 0.9 0.01 0.21 0.13 98 1009.1
20260507180519 71 0 0.0 0.9 0.01 0.21 0.13 97 1009.0
20260507180040 71 0 0.0 0.9 0.01 0.21 0.13 97 1009.1
20260507175520 71 0 0.0 4.3 0.01 0.21 0.13 98 1009.4
20260507175020 71 0 0.0 4.3 0.00 0.20 0.12 98 1009.4
20260507174535 71 295 0.0 3.5 0.00 0.20 0.12 98 1009.5
20260507174020 71 0 0.0 1.7 0.01 0.20 0.12 98 1009.3
20260507173520 71 242 0.0 1.7 0.01 0.20 0.12 98 1009.4
20260507173035 71 0 0.0 0.9 0.01 0.20 0.12 98 1009.5
20260507172520 71 0 0.0 0.9 0.01 0.20 0.12 98 1009.6
20260507172019 70 0 0.0 1.7 0.01 0.20 0.12 98 1009.8
20260507171548 70 0 0.0 1.7 0.01 0.20 0.12 98 1009.9
20260507171019 70 0 0.0 1.7 0.01 0.20 0.12 98 1009.8
20260507170520 69 0 0.0 0.0 0.01 0.20 0.12 98 1009.6
20260507170037 69 0 0.0 0.0 0.01 0.20 0.12 98 1010.1
20260507165519 69 0 0.0 0.0 0.01 0.20 0.12 97 1009.8
20260507165019 69 0 0.0 0.0 0.01 0.20 0.12 98 1010.1
20260507164544 69 0 0.0 0.9 0.01 0.20 0.12 98 1010.1